Voltar ao catálogo

CZ-2D DEB

AtivoSSO
NORAD 43413·DEBRIS·🇨🇳 China

Lançado Nov 25, 2013 de Jiuquan Satellite Launch Center

Loading…

Próximas Passagens (próximas 24 horas)

TLE

AtualizadoSource: Space-Track

Época: Sep 14, 2026, 03:17 UTC

1 43413U 13068B   26257.13717891  .00001242  00000-0  29432-3 0  9994
2 43413  97.9723  22.1116 0106505  32.7795 327.9950 14.52277430664991

Acompanhe CZ-2D DEB em tempo real com AllMySat

Download on the App Store